sat.trackr.live / text

‹ back to catalog

STARLINK-6331

NORAD 57351 · 2023-099Z

PAYLOAD ACTIVE UNKNOWN

§ Identity

Operator
Country
US
Launch date
2023-07-16
Launch site
AFETR
Launch vehicle
Mass (kg)
RCS (m²)

Purposes: comms

External: N2YO · Heavens-Above · Gunter

§ Orbital elements

Epoch: 2026-05-24T19:43:13.235808Z

Period
94.27 min
Inclination
43.0037°
Eccentricity
0.0001791
Mean motion
15.27577884 rev/d
Perigee alt
481.8 km
Apogee alt
484.3 km
Semi-major
6,861.2 km
B*
2.6944e-5
RAAN
178.7078°
Arg perigee
283.2354°
Mean anomaly
76.8298°
Rev number
15,776

§ Raw data

STARLINK-63311 57351U 23099Z   26144.82168097  .00000479  00000+0  26944-4 0  99902 57351  43.0037 178.7078 0001791 283.2354  76.8298 15.27577884157763

JSON: /api/v1/satellites/57351 · /tle

For live sub-satellite position, see the globe view (requires WebGL).

§ Visibility from observer

Set your observer location to see the next 7 days of passes ≥ 10°. The values pass through the URL so the page stays shareable.

No JS? Fill the form by hand. The geolocation button needs JavaScript.